Year,Month,Day,Hour,Minute,Value (Times are PST for temperature in C)
2015,02,16,00,00,2.80
2015,02,16,00,01,2.80
2015,02,16,00,02,2.80
2015,02,16,00,03,2.80
2015,02,16,00,04,2.80
2015,02,16,00,05,2.80
2015,02,16,00,06,2.70
2015,02,16,00,07,2.70
2015,02,16,00,08,2.60
2015,02,16,00,09,2.60
2015,02,16,00,10,2.60
2015,02,16,00,11,2.60
2015,02,16,00,12,2.50
2015,02,16,00,13,2.50
2015,02,16,00,14,2.50
2015,02,16,00,15,2.50
2015,02,16,00,16,2.50
2015,02,16,00,17,2.50
2015,02,16,00,18,2.60
2015,02,16,00,19,2.60
2015,02,16,00,20,2.70
2015,02,16,00,21,2.70
2015,02,16,00,22,2.70
2015,02,16,00,23,2.70
2015,02,16,00,24,2.70
2015,02,16,00,25,2.70
2015,02,16,00,26,2.70
2015,02,16,00,27,2.70
2015,02,16,00,28,2.70
2015,02,16,00,29,2.70
2015,02,16,00,30,2.70
2015,02,16,00,31,2.70
2015,02,16,00,32,2.60
2015,02,16,00,33,2.60
2015,02,16,00,34,2.60
2015,02,16,00,35,2.50
2015,02,16,00,36,2.50
2015,02,16,00,37,2.40
2015,02,16,00,38,2.40
2015,02,16,00,39,2.30
2015,02,16,00,40,2.30
2015,02,16,00,41,2.30
2015,02,16,00,42,2.30
2015,02,16,00,43,2.20
2015,02,16,00,44,2.20
2015,02,16,00,45,2.20
2015,02,16,00,46,2.20
2015,02,16,00,47,2.20
2015,02,16,00,48,2.20
2015,02,16,00,49,2.20
2015,02,16,00,50,2.20
2015,02,16,00,51,2.20
2015,02,16,00,52,2.20
2015,02,16,00,53,2.20
2015,02,16,00,54,2.10
2015,02,16,00,55,2.10
2015,02,16,00,56,2.10
2015,02,16,00,57,2.10
2015,02,16,00,58,2.00
2015,02,16,00,59,2.00
2015,02,16,01,00,2.00
2015,02,16,01,01,1.90
2015,02,16,01,02,1.90
2015,02,16,01,03,1.90
2015,02,16,01,04,1.90
2015,02,16,01,05,1.90
2015,02,16,01,06,1.90
2015,02,16,01,07,1.90
2015,02,16,01,08,1.90
2015,02,16,01,09,1.90
2015,02,16,01,10,1.80
2015,02,16,01,11,1.80
2015,02,16,01,12,1.80
2015,02,16,01,13,1.80
2015,02,16,01,14,1.80
2015,02,16,01,15,1.80
2015,02,16,01,16,1.80
2015,02,16,01,17,1.80
2015,02,16,01,18,1.80
2015,02,16,01,19,1.80
2015,02,16,01,20,1.80
2015,02,16,01,21,1.80
2015,02,16,01,22,1.80
2015,02,16,01,23,1.80
2015,02,16,01,24,1.80
2015,02,16,01,25,1.90
2015,02,16,01,26,1.90
2015,02,16,01,27,1.90
2015,02,16,01,28,1.90
2015,02,16,01,29,1.90
2015,02,16,01,30,1.90
2015,02,16,01,31,1.90
2015,02,16,01,32,1.80
2015,02,16,01,33,1.80
2015,02,16,01,34,1.80
2015,02,16,01,35,1.80
2015,02,16,01,36,1.80
2015,02,16,01,37,1.80
2015,02,16,01,38,1.90
2015,02,16,01,39,1.90
2015,02,16,01,40,1.90
2015,02,16,01,41,2.00
2015,02,16,01,42,2.00
2015,02,16,01,43,2.10
2015,02,16,01,44,2.10
2015,02,16,01,45,2.10
2015,02,16,01,46,2.10
2015,02,16,01,47,2.20
2015,02,16,01,48,2.20
2015,02,16,01,49,2.20
2015,02,16,01,50,2.20
2015,02,16,01,51,2.20
2015,02,16,01,52,2.20
2015,02,16,01,53,2.20
2015,02,16,01,54,2.20
2015,02,16,01,55,2.20
2015,02,16,01,56,2.20
2015,02,16,01,57,2.20
2015,02,16,01,58,2.20
2015,02,16,01,59,2.20
2015,02,16,02,00,2.20
2015,02,16,02,01,2.20
2015,02,16,02,02,2.20
2015,02,16,02,03,2.20
2015,02,16,02,04,2.20
2015,02,16,02,05,2.20
2015,02,16,02,06,2.20
2015,02,16,02,07,2.30
2015,02,16,02,08,2.30
2015,02,16,02,09,2.30
2015,02,16,02,10,2.30
2015,02,16,02,11,2.20
2015,02,16,02,12,2.20
2015,02,16,02,13,2.20
2015,02,16,02,14,2.10
2015,02,16,02,15,2.10
2015,02,16,02,16,2.00
2015,02,16,02,17,1.90
2015,02,16,02,18,1.90
2015,02,16,02,19,1.80
2015,02,16,02,20,1.80
2015,02,16,02,21,1.80
2015,02,16,02,22,1.70
2015,02,16,02,23,1.70
2015,02,16,02,24,1.70
2015,02,16,02,25,1.70
2015,02,16,02,26,1.70
2015,02,16,02,27,1.60
2015,02,16,02,28,1.60
2015,02,16,02,29,1.60
2015,02,16,02,30,1.70
2015,02,16,02,31,1.70
2015,02,16,02,32,1.70
2015,02,16,02,33,1.70
2015,02,16,02,34,1.80
2015,02,16,02,35,1.80
2015,02,16,02,36,1.80
2015,02,16,02,37,1.90
2015,02,16,02,38,1.90
2015,02,16,02,39,1.90
2015,02,16,02,40,1.90
2015,02,16,02,41,1.90
2015,02,16,02,42,1.90
2015,02,16,02,43,1.90
2015,02,16,02,44,1.90
2015,02,16,02,45,1.90
2015,02,16,02,46,1.90
2015,02,16,02,47,1.80
2015,02,16,02,48,1.80
2015,02,16,02,49,1.80
2015,02,16,02,50,1.80
2015,02,16,02,51,1.80
2015,02,16,02,52,1.70
2015,02,16,02,53,1.70
2015,02,16,02,54,1.70
2015,02,16,02,55,1.70
2015,02,16,02,56,1.70
2015,02,16,02,57,1.60
2015,02,16,02,58,1.60
2015,02,16,02,59,1.60
2015,02,16,03,00,1.60
2015,02,16,03,01,1.60
2015,02,16,03,02,1.60
2015,02,16,03,03,1.60
2015,02,16,03,04,1.60
2015,02,16,03,05,1.50
2015,02,16,03,06,1.50
2015,02,16,03,07,1.50
2015,02,16,03,08,1.50
2015,02,16,03,09,1.50
2015,02,16,03,10,1.50
2015,02,16,03,11,1.50
2015,02,16,03,12,1.50
2015,02,16,03,13,1.50
2015,02,16,03,14,1.50
2015,02,16,03,15,1.50
2015,02,16,03,16,1.50
2015,02,16,03,17,1.40
2015,02,16,03,18,1.40
2015,02,16,03,19,1.40
2015,02,16,03,20,1.40
2015,02,16,03,21,1.40
2015,02,16,03,22,1.30
2015,02,16,03,23,1.30
2015,02,16,03,24,1.30
2015,02,16,03,25,1.30
2015,02,16,03,26,1.30
2015,02,16,03,27,1.30
2015,02,16,03,28,1.20
2015,02,16,03,29,1.20
2015,02,16,03,30,1.20
2015,02,16,03,31,1.20
2015,02,16,03,32,1.20
2015,02,16,03,33,1.20
2015,02,16,03,34,1.20
2015,02,16,03,35,1.10
2015,02,16,03,36,1.10
2015,02,16,03,37,1.10
2015,02,16,03,38,1.10
2015,02,16,03,39,1.00
2015,02,16,03,40,1.00
2015,02,16,03,41,1.00
2015,02,16,03,42,1.00
2015,02,16,03,43,1.00
2015,02,16,03,44,0.90
2015,02,16,03,45,1.00
2015,02,16,03,46,1.00
2015,02,16,03,47,1.10
2015,02,16,03,48,1.10
2015,02,16,03,49,1.10
2015,02,16,03,50,1.20
2015,02,16,03,51,1.20
2015,02,16,03,52,1.20
2015,02,16,03,53,1.30
2015,02,16,03,54,1.30
2015,02,16,03,55,1.30
2015,02,16,03,56,1.30
2015,02,16,03,57,1.30
2015,02,16,03,58,1.30
2015,02,16,03,59,1.30
2015,02,16,04,00,1.20
2015,02,16,04,01,1.20
2015,02,16,04,02,1.20
2015,02,16,04,03,1.20
2015,02,16,04,04,1.20
2015,02,16,04,05,1.20
2015,02,16,04,06,1.20
2015,02,16,04,07,1.20
2015,02,16,04,08,1.20
2015,02,16,04,09,1.20
2015,02,16,04,10,1.20
2015,02,16,04,11,1.10
2015,02,16,04,12,1.10
2015,02,16,04,13,1.10
2015,02,16,04,14,1.10
2015,02,16,04,15,1.10
2015,02,16,04,16,1.10
2015,02,16,04,17,1.10
2015,02,16,04,18,1.10
2015,02,16,04,19,1.10
2015,02,16,04,20,1.10
2015,02,16,04,21,1.10
2015,02,16,04,22,1.10
2015,02,16,04,23,1.10
2015,02,16,04,24,1.10
2015,02,16,04,25,1.10
2015,02,16,04,26,1.10
2015,02,16,04,27,1.00
2015,02,16,04,28,1.00
2015,02,16,04,29,1.00
2015,02,16,04,30,1.00
2015,02,16,04,31,0.90
2015,02,16,04,32,0.90
2015,02,16,04,33,0.90
2015,02,16,04,34,0.90
2015,02,16,04,35,0.90
2015,02,16,04,36,1.00
2015,02,16,04,37,0.90
2015,02,16,04,38,0.90
2015,02,16,04,39,0.90
2015,02,16,04,40,0.90
2015,02,16,04,41,0.90
2015,02,16,04,42,0.90
2015,02,16,04,43,0.90
2015,02,16,04,44,0.90
2015,02,16,04,45,0.90
2015,02,16,04,46,0.90
2015,02,16,04,47,0.90
2015,02,16,04,48,0.90
2015,02,16,04,49,0.80
2015,02,16,04,50,0.80
2015,02,16,04,51,0.80
2015,02,16,04,52,0.80
2015,02,16,04,53,0.80
2015,02,16,04,54,0.80
2015,02,16,04,55,0.80
2015,02,16,04,56,0.70
2015,02,16,04,57,0.70
2015,02,16,04,58,0.70
2015,02,16,04,59,0.70
2015,02,16,05,00,0.60
2015,02,16,05,01,0.60
2015,02,16,05,02,0.60
2015,02,16,05,03,0.60
2015,02,16,05,04,0.50
2015,02,16,05,05,0.50
2015,02,16,05,06,0.50
2015,02,16,05,07,0.50
2015,02,16,05,08,0.60
2015,02,16,05,09,0.70
2015,02,16,05,10,0.70
2015,02,16,05,11,0.80
2015,02,16,05,12,0.70
2015,02,16,05,13,0.70
2015,02,16,05,14,0.70
2015,02,16,05,15,0.70
2015,02,16,05,16,0.70
2015,02,16,05,17,0.70
2015,02,16,05,18,0.70
2015,02,16,05,19,0.60
2015,02,16,05,20,0.60
2015,02,16,05,21,0.60
2015,02,16,05,22,0.60
2015,02,16,05,23,0.70
2015,02,16,05,24,0.70
2015,02,16,05,25,0.70
2015,02,16,05,26,0.70
2015,02,16,05,27,0.70
2015,02,16,05,28,0.80
2015,02,16,05,29,0.80
2015,02,16,05,30,0.80
2015,02,16,05,31,0.80
2015,02,16,05,32,0.80
2015,02,16,05,33,0.80
2015,02,16,05,34,0.80
2015,02,16,05,35,0.80
2015,02,16,05,36,0.80
2015,02,16,05,37,0.80
2015,02,16,05,38,0.80
2015,02,16,05,39,0.80
2015,02,16,05,40,0.70
2015,02,16,05,41,0.70
2015,02,16,05,42,0.70
2015,02,16,05,43,0.70
2015,02,16,05,44,0.70
2015,02,16,05,45,0.70
2015,02,16,05,46,0.70
2015,02,16,05,47,0.70
2015,02,16,05,48,0.70
2015,02,16,05,49,0.70
2015,02,16,05,50,0.70
2015,02,16,05,51,0.70
2015,02,16,05,52,0.70
2015,02,16,05,53,0.60
2015,02,16,05,54,0.60
2015,02,16,05,55,0.60
2015,02,16,05,56,0.60
2015,02,16,05,57,0.50
2015,02,16,05,58,0.50
2015,02,16,05,59,0.50
2015,02,16,06,00,0.50
2015,02,16,06,01,0.50
2015,02,16,06,02,0.60
2015,02,16,06,03,0.50
2015,02,16,06,04,0.50
2015,02,16,06,05,0.50
2015,02,16,06,06,0.60
2015,02,16,06,07,0.60
2015,02,16,06,08,0.60
2015,02,16,06,09,0.60
2015,02,16,06,10,0.60
2015,02,16,06,11,0.60
2015,02,16,06,12,0.70
2015,02,16,06,13,0.70
2015,02,16,06,14,0.70
2015,02,16,06,15,0.70
2015,02,16,06,16,0.70
2015,02,16,06,17,0.70
2015,02,16,06,18,0.70
2015,02,16,06,19,0.70
2015,02,16,06,20,0.70
2015,02,16,06,21,0.70
2015,02,16,06,22,0.60
2015,02,16,06,23,0.60
2015,02,16,06,24,0.60
2015,02,16,06,25,0.60
2015,02,16,06,26,0.60
2015,02,16,06,27,0.60
2015,02,16,06,28,0.60
2015,02,16,06,29,0.60
2015,02,16,06,30,0.60
2015,02,16,06,31,0.60
2015,02,16,06,32,0.50
2015,02,16,06,33,0.50
2015,02,16,06,34,0.50
2015,02,16,06,35,0.50
2015,02,16,06,36,0.50
2015,02,16,06,37,0.50
2015,02,16,06,38,0.50
2015,02,16,06,39,0.40
2015,02,16,06,40,0.40
2015,02,16,06,41,0.40
2015,02,16,06,42,0.50
2015,02,16,06,43,0.50
2015,02,16,06,44,0.50
2015,02,16,06,45,0.60
2015,02,16,06,46,0.60
2015,02,16,06,47,0.60
2015,02,16,06,48,0.60
2015,02,16,06,49,0.60
2015,02,16,06,50,0.70
2015,02,16,06,51,0.70
2015,02,16,06,52,0.70
2015,02,16,06,53,0.70
2015,02,16,06,54,0.70
2015,02,16,06,55,0.70
2015,02,16,06,56,0.70
2015,02,16,06,57,0.70
2015,02,16,06,58,0.80
2015,02,16,06,59,0.80
2015,02,16,07,00,0.80
2015,02,16,07,01,0.80
2015,02,16,07,02,0.80
2015,02,16,07,03,0.80
2015,02,16,07,04,0.80
2015,02,16,07,05,0.90
2015,02,16,07,06,0.90
2015,02,16,07,07,0.90
2015,02,16,07,08,0.90
2015,02,16,07,09,0.90
2015,02,16,07,10,0.90
2015,02,16,07,11,0.90
2015,02,16,07,12,1.00
2015,02,16,07,13,1.00
2015,02,16,07,14,1.00
2015,02,16,07,15,1.00
2015,02,16,07,16,1.00
2015,02,16,07,17,1.00
2015,02,16,07,18,1.00
2015,02,16,07,19,1.00
2015,02,16,07,20,1.00
2015,02,16,07,21,0.90
2015,02,16,07,22,0.90
2015,02,16,07,23,0.90
2015,02,16,07,24,0.80
2015,02,16,07,25,0.80
2015,02,16,07,26,0.80
2015,02,16,07,27,0.80
2015,02,16,07,28,0.80
2015,02,16,07,29,0.80
2015,02,16,07,30,0.70
2015,02,16,07,31,0.70
2015,02,16,07,32,0.70
2015,02,16,07,33,0.80
2015,02,16,07,34,0.80
2015,02,16,07,35,0.80
2015,02,16,07,36,0.80
2015,02,16,07,37,0.80
2015,02,16,07,38,0.80
2015,02,16,07,39,0.80
2015,02,16,07,40,0.80
2015,02,16,07,41,0.90
2015,02,16,07,42,0.90
2015,02,16,07,43,0.90
2015,02,16,07,44,0.90
2015,02,16,07,45,0.90
2015,02,16,07,46,0.90
2015,02,16,07,47,1.00
2015,02,16,07,48,1.00
2015,02,16,07,49,1.00
2015,02,16,07,50,1.00
2015,02,16,07,51,1.10
2015,02,16,07,52,1.10
2015,02,16,07,53,1.10
2015,02,16,07,54,1.10
2015,02,16,07,55,1.10
2015,02,16,07,56,1.10
2015,02,16,07,57,1.10
2015,02,16,07,58,1.10
2015,02,16,07,59,1.10
2015,02,16,08,00,1.10
2015,02,16,08,01,1.20
2015,02,16,08,02,1.20
2015,02,16,08,03,1.20
2015,02,16,08,04,1.20
2015,02,16,08,05,1.20
2015,02,16,08,06,1.30
2015,02,16,08,07,1.30
2015,02,16,08,08,1.30
2015,02,16,08,09,1.30
2015,02,16,08,10,1.30
2015,02,16,08,11,1.30
2015,02,16,08,12,1.30
2015,02,16,08,13,1.30
2015,02,16,08,14,1.40
2015,02,16,08,15,1.40
2015,02,16,08,16,1.40
2015,02,16,08,17,1.40
2015,02,16,08,18,1.40
2015,02,16,08,19,1.40
2015,02,16,08,20,1.50
2015,02,16,08,21,1.50
2015,02,16,08,22,1.50
2015,02,16,08,23,1.60
2015,02,16,08,24,1.60
2015,02,16,08,25,1.60
2015,02,16,08,26,1.70
2015,02,16,08,27,1.70
2015,02,16,08,28,1.70
2015,02,16,08,29,1.70
2015,02,16,08,30,1.80
2015,02,16,08,31,1.80
2015,02,16,08,32,1.80
2015,02,16,08,33,1.80
2015,02,16,08,34,1.90
2015,02,16,08,35,1.90
2015,02,16,08,36,1.90
2015,02,16,08,37,1.90
2015,02,16,08,38,1.90
2015,02,16,08,39,2.00
2015,02,16,08,40,2.00
2015,02,16,08,41,2.00
2015,02,16,08,42,2.10
2015,02,16,08,43,2.10
2015,02,16,08,44,2.10
2015,02,16,08,45,2.10
2015,02,16,08,46,2.10
2015,02,16,08,47,2.10
2015,02,16,08,48,2.20
2015,02,16,08,49,2.20
2015,02,16,08,50,2.20
2015,02,16,08,51,2.20
2015,02,16,08,52,2.20
2015,02,16,08,53,2.20
2015,02,16,08,54,2.20
2015,02,16,08,55,2.20
2015,02,16,08,56,2.20
2015,02,16,08,57,2.20
2015,02,16,08,58,2.30
2015,02,16,08,59,2.30
2015,02,16,09,00,2.30
2015,02,16,09,01,2.30
2015,02,16,09,02,2.30
2015,02,16,09,03,2.30
2015,02,16,09,04,2.30
2015,02,16,09,05,2.30
2015,02,16,09,06,2.30
2015,02,16,09,07,2.30
2015,02,16,09,08,2.30
2015,02,16,09,09,2.40
2015,02,16,09,10,2.40
2015,02,16,09,11,2.50
2015,02,16,09,12,2.50
2015,02,16,09,13,2.60
2015,02,16,09,14,2.60
2015,02,16,09,15,2.70
2015,02,16,09,16,2.70
2015,02,16,09,17,2.70
2015,02,16,09,18,2.80
2015,02,16,09,19,2.80
2015,02,16,09,20,2.90
2015,02,16,09,21,2.90
2015,02,16,09,22,3.00
2015,02,16,09,23,3.00
2015,02,16,09,24,3.10
2015,02,16,09,25,3.10
2015,02,16,09,26,3.10
2015,02,16,09,27,3.10
2015,02,16,09,28,3.10
2015,02,16,09,29,3.20
2015,02,16,09,30,3.20
2015,02,16,09,31,3.20
2015,02,16,09,32,3.20
2015,02,16,09,33,3.30
2015,02,16,09,34,3.30
2015,02,16,09,35,3.30
2015,02,16,09,36,3.30
2015,02,16,09,37,3.30
2015,02,16,09,38,3.30
2015,02,16,09,39,3.30
2015,02,16,09,40,3.30
2015,02,16,09,41,3.40
2015,02,16,09,42,3.40
2015,02,16,09,43,3.40
2015,02,16,09,44,3.40
2015,02,16,09,45,3.40
2015,02,16,09,46,3.40
2015,02,16,09,47,3.50
2015,02,16,09,48,3.50
2015,02,16,09,49,3.50
2015,02,16,09,50,3.50
2015,02,16,09,51,3.60
2015,02,16,09,52,3.60
2015,02,16,09,53,3.60
2015,02,16,09,54,3.60
2015,02,16,09,55,3.60
2015,02,16,09,56,3.60
2015,02,16,09,57,3.70
2015,02,16,09,58,3.70
2015,02,16,09,59,3.80
2015,02,16,10,00,3.80
2015,02,16,10,01,3.80
2015,02,16,10,02,3.90
2015,02,16,10,03,3.90
2015,02,16,10,04,4.00
2015,02,16,10,05,4.00
2015,02,16,10,06,4.10
2015,02,16,10,07,4.10
2015,02,16,10,08,4.10
2015,02,16,10,09,4.10
2015,02,16,10,10,4.10
2015,02,16,10,11,4.20
2015,02,16,10,12,4.20
2015,02,16,10,13,4.20
2015,02,16,10,14,4.20
2015,02,16,10,15,4.20
2015,02,16,10,16,4.30
2015,02,16,10,17,4.30
2015,02,16,10,18,4.30
2015,02,16,10,19,4.40
2015,02,16,10,20,4.50
2015,02,16,10,21,4.50
2015,02,16,10,22,4.50
2015,02,16,10,23,4.60
2015,02,16,10,24,4.60
2015,02,16,10,25,4.60
2015,02,16,10,26,4.70
2015,02,16,10,27,4.70
2015,02,16,10,28,4.70
2015,02,16,10,29,4.70
2015,02,16,10,30,4.80
2015,02,16,10,31,4.80
2015,02,16,10,32,4.90
2015,02,16,10,33,5.00
2015,02,16,10,34,5.00
2015,02,16,10,35,5.10
2015,02,16,10,36,5.10
2015,02,16,10,37,5.10
2015,02,16,10,38,5.20
2015,02,16,10,39,5.20
2015,02,16,10,40,5.20
2015,02,16,10,41,5.30
2015,02,16,10,42,5.30
2015,02,16,10,43,5.30
2015,02,16,10,44,5.40
2015,02,16,10,45,5.40
2015,02,16,10,46,5.50
2015,02,16,10,47,5.50
2015,02,16,10,48,5.60
2015,02,16,10,49,5.60
2015,02,16,10,50,5.60
2015,02,16,10,51,5.60
2015,02,16,10,52,5.70
2015,02,16,10,53,5.70
2015,02,16,10,54,5.70
2015,02,16,10,55,5.80
2015,02,16,10,56,5.80
2015,02,16,10,57,5.90
2015,02,16,10,58,5.90
2015,02,16,10,59,5.90
2015,02,16,11,00,6.00
2015,02,16,11,01,6.00
2015,02,16,11,02,6.00
2015,02,16,11,03,6.10
2015,02,16,11,04,6.10
2015,02,16,11,05,6.10
2015,02,16,11,06,6.10
2015,02,16,11,07,6.10
2015,02,16,11,08,6.10
2015,02,16,11,09,6.20
2015,02,16,11,10,6.20
2015,02,16,11,11,6.20
2015,02,16,11,12,6.20
2015,02,16,11,13,6.20
2015,02,16,11,14,6.30
2015,02,16,11,15,6.30
2015,02,16,11,16,6.30
2015,02,16,11,17,6.30
2015,02,16,11,18,6.40
2015,02,16,11,19,6.40
2015,02,16,11,20,6.50
2015,02,16,11,21,6.50
2015,02,16,11,22,6.60
2015,02,16,11,23,6.60
2015,02,16,11,24,6.70
2015,02,16,11,25,6.70
2015,02,16,11,26,6.70
2015,02,16,11,27,6.80
2015,02,16,11,28,6.80
2015,02,16,11,29,6.80
2015,02,16,11,30,6.80
2015,02,16,11,31,6.90
2015,02,16,11,32,6.90
2015,02,16,11,33,7.00
2015,02,16,11,34,7.00
2015,02,16,11,35,7.00
2015,02,16,11,36,7.10
2015,02,16,11,37,7.10
2015,02,16,11,38,7.20
2015,02,16,11,39,7.20
2015,02,16,11,40,7.30
2015,02,16,11,41,7.30
2015,02,16,11,42,7.30
2015,02,16,11,43,7.40
2015,02,16,11,44,7.40
2015,02,16,11,45,7.40
2015,02,16,11,46,7.50
2015,02,16,11,47,7.60
2015,02,16,11,48,7.60
2015,02,16,11,49,7.70
2015,02,16,11,50,7.70
2015,02,16,11,51,7.80
2015,02,16,11,52,7.80
2015,02,16,11,53,7.90
2015,02,16,11,54,8.00
2015,02,16,11,55,8.00
2015,02,16,11,56,8.10
2015,02,16,11,57,8.10
2015,02,16,11,58,8.20
2015,02,16,11,59,8.20
2015,02,16,12,00,8.30
2015,02,16,12,01,8.30
2015,02,16,12,02,8.30
2015,02,16,12,03,8.40
2015,02,16,12,04,8.50
2015,02,16,12,05,8.50
2015,02,16,12,06,8.60
2015,02,16,12,07,8.60
2015,02,16,12,08,8.70
2015,02,16,12,09,8.70
2015,02,16,12,10,8.80
2015,02,16,12,11,8.80
2015,02,16,12,12,8.80
2015,02,16,12,13,8.80
2015,02,16,12,14,8.80
2015,02,16,12,15,8.80
2015,02,16,12,16,8.80
2015,02,16,12,17,8.80
2015,02,16,12,18,8.90
2015,02,16,12,19,8.90
2015,02,16,12,20,8.90
2015,02,16,12,21,8.90
2015,02,16,12,22,8.90
2015,02,16,12,23,9.00
2015,02,16,12,24,9.00
2015,02,16,12,25,9.10
2015,02,16,12,26,9.00
2015,02,16,12,27,9.00
2015,02,16,12,28,8.90
2015,02,16,12,29,8.90
2015,02,16,12,30,8.90
2015,02,16,12,31,8.90
2015,02,16,12,32,8.90
2015,02,16,12,33,8.90
2015,02,16,12,34,8.90
2015,02,16,12,35,9.00
2015,02,16,12,36,9.00
2015,02,16,12,37,9.00
2015,02,16,12,38,9.10
2015,02,16,12,39,9.10
2015,02,16,12,40,9.20
2015,02,16,12,41,9.20
2015,02,16,12,42,9.30
2015,02,16,12,43,9.30
2015,02,16,12,44,9.30
2015,02,16,12,45,9.30
2015,02,16,12,46,9.30
2015,02,16,12,47,9.30
2015,02,16,12,48,9.30
2015,02,16,12,49,9.30
2015,02,16,12,50,9.30
2015,02,16,12,51,9.30
2015,02,16,12,52,9.30
2015,02,16,12,53,9.30
2015,02,16,12,54,9.30
2015,02,16,12,55,9.30
2015,02,16,12,56,9.40
2015,02,16,12,57,9.40
2015,02,16,12,58,9.40
2015,02,16,12,59,9.40
2015,02,16,13,00,9.40
2015,02,16,13,01,9.40
2015,02,16,13,02,9.40
2015,02,16,13,03,9.40
2015,02,16,13,04,9.40
2015,02,16,13,05,9.40
2015,02,16,13,06,9.40
2015,02,16,13,07,9.40
2015,02,16,13,08,9.40
2015,02,16,13,09,9.40
2015,02,16,13,10,9.40
2015,02,16,13,11,9.40
2015,02,16,13,12,9.30
2015,02,16,13,13,9.30
2015,02,16,13,14,9.30
2015,02,16,13,15,9.30
2015,02,16,13,16,9.20
2015,02,16,13,17,9.20
2015,02,16,13,18,9.20
2015,02,16,13,19,9.10
2015,02,16,13,20,9.00
2015,02,16,13,21,9.00
2015,02,16,13,22,8.90
2015,02,16,13,23,8.90
2015,02,16,13,24,8.90
2015,02,16,13,25,8.90
2015,02,16,13,26,9.00
2015,02,16,13,27,9.00
2015,02,16,13,28,9.10
2015,02,16,13,29,9.10
2015,02,16,13,30,9.20
2015,02,16,13,31,9.20
2015,02,16,13,32,9.20
2015,02,16,13,33,9.30
2015,02,16,13,34,9.30
2015,02,16,13,35,9.30
2015,02,16,13,36,9.30
2015,02,16,13,37,9.40
2015,02,16,13,38,9.40
2015,02,16,13,39,9.40
2015,02,16,13,40,9.40
2015,02,16,13,41,9.40
2015,02,16,13,42,9.50
2015,02,16,13,43,9.50
2015,02,16,13,44,9.50
2015,02,16,13,45,9.60
2015,02,16,13,46,9.60
2015,02,16,13,47,9.60
2015,02,16,13,48,9.70
2015,02,16,13,49,9.70
2015,02,16,13,50,9.70
2015,02,16,13,51,9.70
2015,02,16,13,52,9.70
2015,02,16,13,53,9.80
2015,02,16,13,54,9.80
2015,02,16,13,55,9.80
2015,02,16,13,56,9.80
2015,02,16,13,57,9.90
2015,02,16,13,58,9.90
2015,02,16,13,59,9.90
2015,02,16,14,00,10.00
2015,02,16,14,01,10.10
2015,02,16,14,02,10.10
2015,02,16,14,03,10.20
2015,02,16,14,04,10.30
2015,02,16,14,05,10.30
2015,02,16,14,06,10.30
2015,02,16,14,07,10.30
2015,02,16,14,08,10.30
2015,02,16,14,09,10.30
2015,02,16,14,10,10.30
2015,02,16,14,11,10.30
2015,02,16,14,12,10.30
2015,02,16,14,13,10.40
2015,02,16,14,14,10.40
2015,02,16,14,15,10.50
2015,02,16,14,16,10.60
2015,02,16,14,17,10.60
2015,02,16,14,18,10.70
2015,02,16,14,19,10.80
2015,02,16,14,20,10.80
2015,02,16,14,21,10.90
2015,02,16,14,22,11.00
2015,02,16,14,23,11.10
2015,02,16,14,24,11.20
2015,02,16,14,25,11.20
2015,02,16,14,26,11.30
2015,02,16,14,27,11.30
2015,02,16,14,28,11.30
2015,02,16,14,29,11.30
2015,02,16,14,30,11.30
2015,02,16,14,31,11.30
2015,02,16,14,32,11.20
2015,02,16,14,33,11.20
2015,02,16,14,34,11.20
2015,02,16,14,35,11.30
2015,02,16,14,36,11.30
2015,02,16,14,37,11.30
2015,02,16,14,38,11.30
2015,02,16,14,39,11.20
2015,02,16,14,40,11.20
2015,02,16,14,41,11.20
2015,02,16,14,42,11.10
2015,02,16,14,43,11.10
2015,02,16,14,44,11.20
2015,02,16,14,45,11.20
2015,02,16,14,46,11.20
2015,02,16,14,47,11.20
2015,02,16,14,48,11.30
2015,02,16,14,49,11.30
2015,02,16,14,50,11.40
2015,02,16,14,51,11.50
2015,02,16,14,52,11.60
2015,02,16,14,53,11.60
2015,02,16,14,54,11.70
2015,02,16,14,55,11.70
2015,02,16,14,56,11.80
2015,02,16,14,57,11.80
2015,02,16,14,58,11.80
2015,02,16,14,59,11.80
2015,02,16,15,00,11.80
2015,02,16,15,01,11.80
2015,02,16,15,02,11.80
2015,02,16,15,03,11.80
2015,02,16,15,04,11.80
2015,02,16,15,05,11.90
2015,02,16,15,06,11.90
2015,02,16,15,07,12.00
2015,02,16,15,08,12.00
2015,02,16,15,09,12.10
2015,02,16,15,10,12.10
2015,02,16,15,11,12.20
2015,02,16,15,12,12.20
2015,02,16,15,13,12.30
2015,02,16,15,14,12.30
2015,02,16,15,15,12.30
2015,02,16,15,16,12.30
2015,02,16,15,17,12.30
2015,02,16,15,18,12.30
2015,02,16,15,19,12.40
2015,02,16,15,20,12.40
2015,02,16,15,21,12.50
2015,02,16,15,22,12.50
2015,02,16,15,23,12.50
2015,02,16,15,24,12.50
2015,02,16,15,25,12.40
2015,02,16,15,26,12.40
2015,02,16,15,27,12.40
2015,02,16,15,28,12.40
2015,02,16,15,29,12.50
2015,02,16,15,30,12.50
2015,02,16,15,31,12.60
2015,02,16,15,32,12.60
2015,02,16,15,33,12.70
2015,02,16,15,34,12.70
2015,02,16,15,35,12.70
2015,02,16,15,36,12.70
2015,02,16,15,37,12.70
2015,02,16,15,38,12.80
2015,02,16,15,39,12.80
2015,02,16,15,40,12.80
2015,02,16,15,41,12.80
2015,02,16,15,42,12.80
2015,02,16,15,43,12.70
2015,02,16,15,44,12.60
2015,02,16,15,45,12.50
2015,02,16,15,46,12.30
2015,02,16,15,47,12.20
2015,02,16,15,48,12.10
2015,02,16,15,49,12.10
2015,02,16,15,50,12.00
2015,02,16,15,51,11.90
2015,02,16,15,52,11.90
2015,02,16,15,53,11.80
2015,02,16,15,54,11.80
2015,02,16,15,55,11.80
2015,02,16,15,56,11.80
2015,02,16,15,57,11.70
2015,02,16,15,58,11.70
2015,02,16,15,59,11.60
2015,02,16,16,00,11.50
2015,02,16,16,01,11.40
2015,02,16,16,02,11.40
2015,02,16,16,03,11.40
2015,02,16,16,04,11.40
2015,02,16,16,05,11.30
2015,02,16,16,06,11.30
2015,02,16,16,07,11.30
2015,02,16,16,08,11.20
2015,02,16,16,09,11.20
2015,02,16,16,10,11.10
2015,02,16,16,11,11.10
2015,02,16,16,12,11.10
2015,02,16,16,13,11.10
2015,02,16,16,14,11.10
2015,02,16,16,15,11.10
2015,02,16,16,16,11.20
2015,02,16,16,17,11.20
2015,02,16,16,18,11.20
2015,02,16,16,19,11.20
2015,02,16,16,20,11.20
2015,02,16,16,21,11.20
2015,02,16,16,22,11.20
2015,02,16,16,23,11.20
2015,02,16,16,24,11.20
2015,02,16,16,25,11.30
2015,02,16,16,26,11.30
2015,02,16,16,27,11.30
2015,02,16,16,28,11.30
2015,02,16,16,29,11.30
2015,02,16,16,30,11.30
2015,02,16,16,31,11.40
2015,02,16,16,32,11.40
2015,02,16,16,33,11.40
2015,02,16,16,34,11.40
2015,02,16,16,35,11.40
2015,02,16,16,36,11.40
2015,02,16,16,37,11.40
2015,02,16,16,38,11.40
2015,02,16,16,39,11.40
2015,02,16,16,40,11.40
2015,02,16,16,41,11.40
2015,02,16,16,42,11.40
2015,02,16,16,43,11.40
2015,02,16,16,44,11.30
2015,02,16,16,45,11.30
2015,02,16,16,46,11.30
2015,02,16,16,47,11.30
2015,02,16,16,48,11.20
2015,02,16,16,49,11.20
2015,02,16,16,50,11.10
2015,02,16,16,51,11.10
2015,02,16,16,52,11.00
2015,02,16,16,53,11.00
2015,02,16,16,54,10.90
2015,02,16,16,55,10.90
2015,02,16,16,56,10.90
2015,02,16,16,57,10.80
2015,02,16,16,58,10.80
2015,02,16,16,59,10.80
2015,02,16,17,00,10.70
2015,02,16,17,01,10.70
2015,02,16,17,02,10.70
2015,02,16,17,03,10.60
2015,02,16,17,04,10.60
2015,02,16,17,05,10.60
2015,02,16,17,06,10.60
2015,02,16,17,07,10.50
2015,02,16,17,08,10.50
2015,02,16,17,09,10.50
2015,02,16,17,10,10.50
2015,02,16,17,11,10.40
2015,02,16,17,12,10.40
2015,02,16,17,13,10.40
2015,02,16,17,14,10.40
2015,02,16,17,15,10.30
2015,02,16,17,16,10.30
2015,02,16,17,17,10.30
2015,02,16,17,18,10.20
2015,02,16,17,19,10.10
2015,02,16,17,20,10.10
2015,02,16,17,21,10.00
2015,02,16,17,22,9.90
2015,02,16,17,23,9.80
2015,02,16,17,24,9.70
2015,02,16,17,25,9.70
2015,02,16,17,26,9.60
2015,02,16,17,27,9.50
2015,02,16,17,28,9.40
2015,02,16,17,29,9.30
2015,02,16,17,30,9.30
2015,02,16,17,31,9.20
2015,02,16,17,32,9.20
2015,02,16,17,33,9.10
2015,02,16,17,34,9.10
2015,02,16,17,35,9.10
2015,02,16,17,36,9.00
2015,02,16,17,37,9.00
2015,02,16,17,38,8.90
2015,02,16,17,39,8.80
2015,02,16,17,40,8.80
2015,02,16,17,41,8.70
2015,02,16,17,42,8.60
2015,02,16,17,43,8.60
2015,02,16,17,44,8.50
2015,02,16,17,45,8.50
2015,02,16,17,46,8.40
2015,02,16,17,47,8.40
2015,02,16,17,48,8.30
2015,02,16,17,49,8.30
2015,02,16,17,50,8.30
2015,02,16,17,51,8.20
2015,02,16,17,52,8.20
2015,02,16,17,53,8.20
2015,02,16,17,54,8.20
2015,02,16,17,55,8.10
2015,02,16,17,56,8.10
2015,02,16,17,57,8.10